This is the latest recevied weather packets stored in our database for station/object KB4MLW-13. If no packets are shown the sender has not sent any weather packets the latest 10 day(s).
| Time | Temp. | Humidity | Pressure | Rain* | Wind** | Luminosity | Snow |
|---|---|---|---|---|---|---|---|
| 1788365638 | 33.89° C | 62% | 1002.4 hPa | 0 mm | - | - | - |
| 1788365578 | 33.89° C | 64% | 1002.6 hPa | 0 mm | - | - | - |
| 1788365489 | 33.89° C | 60% | 1002.3 hPa | 0 mm | - | - | - |
| 1788365428 | 33.89° C | 62% | 1002.2 hPa | 0 mm | - | - | - |
| 1788365368 | 33.89° C | 63% | 1002.5 hPa | 0 mm | - | - | - |
| 1788365308 | 33.89° C | 62% | 1002.4 hPa | 0 mm | - | - | - |
| 1788365248 | 33.89° C | 61% | 1002.1 hPa | 0 mm | - | - | - |
| 1788365159 | 33.33° C | 62% | 1002.5 hPa | 0 mm | - | - | - |
| 1788365098 | 33.33° C | 67% | 1002.5 hPa | 0 mm | - | - | - |
| 1788365009 | 33.33° C | 61% | 1002.6 hPa | 0 mm | - | - | - |
| 1788364948 | 33.89° C | 65% | 1002.5 hPa | 0 mm | - | - | - |
| 1788364888 | 33.89° C | 62% | 1002.6 hPa | 0 mm | - | - | - |
| 1788364798 | 33.89° C | 63% | 1002.7 hPa | 0 mm | - | - | - |
| 1788364708 | 33.89° C | 65% | 1002.4 hPa | 0 mm | - | - | - |
| 1788364653 | 33.89° C | 64% | 1002.5 hPa | 0 mm | - | - | - |
| 1788364588 | 33.89° C | 63% | 1002.5 hPa | 0 mm | - | - | - |
| 1788364498 | 33.89° C | 62% | 1002.6 hPa | 0 mm | - | - | - |
| 1788364438 | 33.89° C | 63% | 1002.6 hPa | 0 mm | - | - | - |
| 1788364378 | 33.89° C | 67% | 1002.4 hPa | 0 mm | - | - | - |
| 1788364318 | 33.33° C | 64% | 1002.8 hPa | 0 mm | - | - | - |
| 1788364258 | 33.89° C | 62% | 1002.5 hPa | 0 mm | - | - | - |
| 1788364168 | 33.33° C | 64% | 1002.5 hPa | 0 mm | - | - | - |
| 1788364108 | 33.33° C | 66% | 1002.7 hPa | 0 mm | - | - | - |
| 1788364048 | 33.33° C | 67% | 1002.7 hPa | 0 mm | - | - | - |
| 1788363988 | 33.33° C | 67% | 1002.6 hPa | 0 mm | - | - | - |
* Rain latest hour (hover to see other rain measurements)
** Current wind speed in m/s (hover to see current wind gust speed)